• In Deutschland
  • Länderverzeichnis
  • Für 7 Tage
  • Wassertemperatur
  • Satellitenkarten
  • Wetterkarte
  • Widgets
  • user-avatar
    Anmelden

    Stündliche Wetter Madingou

    Heute, 21 August, Montag

    Zeit Temperatur Niederschläge Wind Luftdruck Luftfeuchtigkeit
    00:00 +28°C° 0,1 mm 3 m/S 746 mmHg 68%
    01:00 +27°C° 0,1 mm 3 m/S 746 mmHg 72%
    02:00 +27°C° 0,2 mm 3 m/S 746 mmHg 74%
    03:00 +26°C° 0,2 mm 2 m/S 746 mmHg 76%
    04:00 +26°C° 0,2 mm 2 m/S 746 mmHg 78%
    05:00 +26°C° 0 mm 2 m/S 746 mmHg 78%
    06:00 +26°C° 0 mm 2 m/S 746 mmHg 78%
    07:00 +25°C° 0 mm 2 m/S 746 mmHg 79%
    08:00 +26°C° 0 mm 2 m/S 747 mmHg 76%
    09:00 +27°C° 0 mm 2 m/S 747 mmHg 72%
    10:00 +27°C° 0 mm 2 m/S 747 mmHg 69%
    11:00 +28°C° 0 mm 3 m/S 747 mmHg 66%
    12:00 +29°C° 0 mm 3 m/S 746 mmHg 63%
    13:00 +30°C° 0 mm 3 m/S 745 mmHg 59%
    14:00 +30°C° 0 mm 3 m/S 745 mmHg 58%
    15:00 +30°C° 0 mm 3 m/S 744 mmHg 57%
    16:00 +31°C° 0 mm 3 m/S 744 mmHg 55%
    17:00 +30°C° 0 mm 3 m/S 744 mmHg 58%
    18:00 +29°C° 0 mm 3 m/S 744 mmHg 61%
    19:00 +28°C° 0 mm 3 m/S 745 mmHg 64%
    20:00 +27°C° 0 mm 3 m/S 745 mmHg 67%
    21:00 +27°C° 0 mm 3 m/S 746 mmHg 70%
    22:00 +26°C° 0 mm 3 m/S 747 mmHg 73%
    23:00 +26°C° 0 mm 3 m/S 746 mmHg 75%

    Morgen, 22 August, Dienstag

    Zeit Temperatur Niederschläge Wind Luftdruck Luftfeuchtigkeit
    00:00 +25°C° 0 mm 3 m/S 746 mmHg 77%
    01:00 +25°C° 0 mm 3 m/S 746 mmHg 79%
    02:00 +24°C° 0 mm 3 m/S 746 mmHg 79%
    03:00 +24°C° 0 mm 2 m/S 746 mmHg 79%
    04:00 +24°C° 0 mm 2 m/S 746 mmHg 79%
    05:00 +24°C° 0 mm 2 m/S 746 mmHg 78%
    06:00 +24°C° 0 mm 2 m/S 746 mmHg 77%
    07:00 +24°C° 0 mm 2 m/S 746 mmHg 76%
    08:00 +26°C° 0 mm 2 m/S 747 mmHg 69%
    09:00 +27°C° 0 mm 2 m/S 747 mmHg 62%
    10:00 +29°C° 0 mm 2 m/S 747 mmHg 55%
    11:00 +31°C° 0 mm 2 m/S 746 mmHg 48%
    12:00 +32°C° 0 mm 2 m/S 745 mmHg 41%
    13:00 +35°C° 0 mm 2 m/S 744 mmHg 34%
    14:00 +36°C° 0 mm 2 m/S 743 mmHg 33%
    15:00 +36°C° 0 mm 2 m/S 743 mmHg 32%
    16:00 +37°C° 0 mm 2 m/S 742 mmHg 30%
    17:00 +35°C° 0 mm 2 m/S 742 mmHg 33%
    18:00 +34°C° 0 mm 2 m/S 743 mmHg 35%
    19:00 +32°C° 0 mm 2 m/S 743 mmHg 37%
    20:00 +31°C° 0 mm 2 m/S 744 mmHg 41%
    21:00 +30°C° 0 mm 3 m/S 744 mmHg 45%
    22:00 +29°C° 0 mm 3 m/S 745 mmHg 48%
    23:00 +28°C° 0 mm 3 m/S 745 mmHg 52%

    übermorgen, 23 August, Mittwoch

    Zeit Temperatur Niederschläge Wind Luftdruck Luftfeuchtigkeit
    00:00 +27°C° 0 mm 3 m/S 744 mmHg 56%
    01:00 +26°C° 0 mm 3 m/S 744 mmHg 60%
    02:00 +26°C° 0 mm 2 m/S 744 mmHg 62%
    03:00 +25°C° 0 mm 2 m/S 744 mmHg 65%
    04:00 +25°C° 0 mm 2 m/S 744 mmHg 68%
    05:00 +24°C° 0 mm 2 m/S 744 mmHg 70%
    06:00 +24°C° 0 mm 2 m/S 745 mmHg 72%
    07:00 +24°C° 0 mm 2 m/S 745 mmHg 74%
    08:00 +25°C° 0 mm 2 m/S 746 mmHg 69%
    09:00 +26°C° 0 mm 2 m/S 746 mmHg 64%
    10:00 +28°C° 0 mm 2 m/S 747 mmHg 59%
    11:00 +29°C° 0 mm 2 m/S 746 mmHg 54%
    12:00 +31°C° 0 mm 2 m/S 745 mmHg 48%
    13:00 +34°C° 0 mm 2 m/S 745 mmHg 43%
    14:00 +34°C° 0 mm 2 m/S 744 mmHg 42%
    15:00 +34°C° 0 mm 3 m/S 743 mmHg 41%
    16:00 +35°C° 0 mm 3 m/S 743 mmHg 40%
    17:00 +34°C° 0 mm 3 m/S 743 mmHg 44%
    18:00 +31°C° 0 mm 3 m/S 744 mmHg 48%
    19:00 +30°C° 0 mm 3 m/S 744 mmHg 52%
    20:00 +29°C° 0 mm 3 m/S 745 mmHg 57%
    21:00 +27°C° 0 mm 3 m/S 745 mmHg 62%
    22:00 +26°C° 0 mm 3 m/S 746 mmHg 67%
    23:00 +26°C° 0 mm 3 m/S 746 mmHg 70%

    24 August, Donnerstag

    Zeit Temperatur Niederschläge Wind Luftdruck Luftfeuchtigkeit
    00:00 +25°C° 0 mm 3 m/S 746 mmHg 72%
    01:00 +24°C° 0 mm 3 m/S 745 mmHg 75%
    02:00 +24°C° 0 mm 3 m/S 745 mmHg 76%
    03:00 +24°C° 0 mm 2 m/S 745 mmHg 77%
    04:00 +24°C° 0 mm 2 m/S 745 mmHg 78%
    05:00 +24°C° 0 mm 2 m/S 746 mmHg 78%
    06:00 +24°C° 0 mm 2 m/S 746 mmHg 78%
    07:00 +24°C° 0 mm 2 m/S 746 mmHg 78%
    08:00 +25°C° 0 mm 2 m/S 747 mmHg 73%
    09:00 +27°C° 0 mm 2 m/S 747 mmHg 67%
    10:00 +28°C° 0 mm 2 m/S 747 mmHg 62%
    11:00 +30°C° 0 mm 2 m/S 746 mmHg 56%
    12:00 +31°C° 0 mm 3 m/S 745 mmHg 50%
    13:00 +34°C° 0 mm 3 m/S 745 mmHg 45%
    14:00 +34°C° 0 mm 3 m/S 744 mmHg 44%
    15:00 +34°C° 0 mm 3 m/S 744 mmHg 43%
    16:00 +35°C° 0 mm 3 m/S 743 mmHg 42%
    17:00 +34°C° 0 mm 3 m/S 744 mmHg 45%
    18:00 +31°C° 0 mm 3 m/S 744 mmHg 49%
    19:00 +30°C° 0 mm 3 m/S 745 mmHg 52%
    20:00 +29°C° 0 mm 3 m/S 745 mmHg 56%
    21:00 +28°C° 0 mm 3 m/S 746 mmHg 59%
    22:00 +27°C° 0 mm 3 m/S 746 mmHg 63%
    23:00 +27°C° 0 mm 3 m/S 746 mmHg 65%

    25 August, Freitag

    Zeit Temperatur Niederschläge Wind Luftdruck Luftfeuchtigkeit
    00:00 +26°C° 0 mm 3 m/S 746 mmHg 67%
    01:00 +25°C° 0 mm 3 m/S 746 mmHg 70%
    02:00 +25°C° 0 mm 2 m/S 746 mmHg 72%
    03:00 +25°C° 0 mm 2 m/S 746 mmHg 74%
    04:00 +24°C° 0 mm 2 m/S 746 mmHg 76%
    05:00 +24°C° 0 mm 2 m/S 746 mmHg 77%
    06:00 +24°C° 0 mm 2 m/S 746 mmHg 77%
    07:00 +24°C° 0 mm 2 m/S 746 mmHg 78%
    08:00 +26°C° 0 mm 2 m/S 747 mmHg 70%
    09:00 +28°C° 0 mm 2 m/S 747 mmHg 62%
    10:00 +30°C° 0 mm 2 m/S 747 mmHg 55%
    11:00 +32°C° 0 mm 2 m/S 746 mmHg 49%
    12:00 +34°C° 0 mm 3 m/S 745 mmHg 43%
    13:00 +36°C° 0 mm 3 m/S 744 mmHg 37%
    14:00 +37°C° 0 mm 3 m/S 743 mmHg 36%
    15:00 +37°C° 0 mm 3 m/S 743 mmHg 35%
    16:00 +37°C° 0 mm 3 m/S 742 mmHg 34%
    17:00 +36°C° 0 mm 3 m/S 743 mmHg 37%
    18:00 +35°C° 0 mm 3 m/S 743 mmHg 41%
    19:00 +34°C° 0 mm 3 m/S 744 mmHg 44%
    20:00 +31°C° 0 mm 3 m/S 744 mmHg 49%
    21:00 +30°C° 0 mm 3 m/S 745 mmHg 54%
    22:00 +29°C° 0 mm 4 m/S 746 mmHg 59%
    23:00 +28°C° 0 mm 3 m/S 745 mmHg 62%

    26 August, Samstag

    Zeit Temperatur Niederschläge Wind Luftdruck Luftfeuchtigkeit
    00:00 +27°C° 0 mm 3 m/S 745 mmHg 66%
    01:00 +26°C° 0 mm 3 m/S 745 mmHg 69%
    02:00 +26°C° 0 mm 3 m/S 745 mmHg 71%
    03:00 +25°C° 0 mm 3 m/S 745 mmHg 74%
    04:00 +25°C° 0 mm 3 m/S 745 mmHg 76%
    05:00 +25°C° 0 mm 3 m/S 746 mmHg 76%
    06:00 +25°C° 0 mm 3 m/S 746 mmHg 75%
    07:00 +25°C° 0 mm 3 m/S 747 mmHg 74%
    08:00 +26°C° 0 mm 3 m/S 747 mmHg 70%
    09:00 +27°C° 0 mm 3 m/S 747 mmHg 65%
    10:00 +28°C° 0 mm 3 m/S 747 mmHg 60%
    11:00 +30°C° 0 mm 3 m/S 747 mmHg 54%
    12:00 +31°C° 0 mm 3 m/S 746 mmHg 48%
    13:00 +34°C° 0 mm 3 m/S 745 mmHg 42%
    14:00 +34°C° 0 mm 4 m/S 745 mmHg 44%
    15:00 +33°C° 0 mm 4 m/S 744 mmHg 45%
    16:00 +33°C° 0 mm 4 m/S 744 mmHg 46%
    17:00 +30°C° 0 mm 4 m/S 744 mmHg 51%
    18:00 +29°C° 0 mm 4 m/S 744 mmHg 55%
    19:00 +28°C° 0 mm 3 m/S 745 mmHg 60%
    20:00 +27°C° 0 mm 3 m/S 745 mmHg 63%
    21:00 +26°C° 0 mm 3 m/S 746 mmHg 66%
    22:00 +26°C° 0 mm 2 m/S 747 mmHg 69%
    23:00 +25°C° 0 mm 2 m/S 746 mmHg 71%
    Mehr zeigen